#timestamp,LO_Frequency,Hit,StdDev 
1575237615.3,286047004.0,N
1575237635.1,286047003.9,N
1575237636.0,286047003.9,N
1575237655.8,286047003.9,N
1575237675.7,286047001.6,N
1575237695.5,286047002.3,N
1575237715.3,286047001.6,N
1575237735.2,286046999.7,N
1575237755.0,286046999.8,N
1575237755.9,286046999.8,N
1575237775.8,286046998.2,N
1575237795.6,286046998.5,N
1575237815.4,286046998.5,N
1575237835.3,286047000.7,N
1575237855.1,286047000.5,N
1575237875.8,286046999.9,N
1575237895.7,286047002.8,N
1575237915.5,286047000.9,N
1575237935.4,286047001.0,N
1575237955.2,286046998.5,N
1575237975.0,286046998.6,N
1575237975.9,286046998.6,N
1575237995.8,286046998.2,N
1575238015.6,286046999.0,N
1575238035.5,286046998.2,N
1575238055.3,286046996.8,N
1575238075.1,286046999.9,N
1575238125.9,286047000.0,E
1575238135.8,286047000.1,N
1575238155.7,286047000.3,P
1575238175.5,286047000.7,P
1575238195.3,286046998.3,Y
1575238215.2,286046998.3,P
1575238235.0,286047001.2,N
1575238235.9,286047001.2,N
1575238255.7,286046999.0,N
1575238275.6,286047001.0,N
1575238295.4,286047000.5,N
1575238315.3,286046998.1,N
1575238335.1,286046998.5,N
1575238336.0,286046998.5,N
1575238355.8,286047000.4,N
1575238375.7,286046999.8,N
1575238395.5,286047000.5,N
1575238415.4,286047000.8,N
1575238435.2,286047001.0,N
1575238455.0,286047000.4,N
1575238455.9,286047000.4,N
1575238475.8,286046999.8,N
1575238495.6,286046999.9,N
1575238515.4,286047000.8,N
1575238535.3,286047000.1,N
1575238555.1,286047000.9,N
1575238575.9,286047000.7,N
1575238595.7,286047000.1,N
1575238615.5,286047001.0,N
1575238635.4,286046998.5,N
1575238655.2,286047000.9,N
1575238675.0,286047000.4,N
1575238675.9,286047000.4,N
1575238695.8,286046998.3,N
1575238715.6,286046998.7,N
1575238735.5,286046998.8,N
1575238755.3,286046996.7,Y
1575238775.1,286046999.5,P
1575238795.9,286046999.2,P
1575238815.7,286046997.2,P
1575238835.6,286046997.8,N
1575238855.4,286046997.6,N
1575238875.2,286046997.5,N
1575238895.1,286046997.2,N
1575238896.0,286046997.2,N
1575238915.8,286046994.9,Y
1575238935.6,286046997.2,P
1575238955.5,286046996.5,P
1575238975.3,286046997.6,P
1575238995.2,286046997.7,Y
1575239015.9,286047000.0,P
1575239035.7,286047000.3,N
1575239055.6,286046999.8,N
1575239075.4,286047000.2,N
1575239095.3,286047000.0,N
1575239115.1,286047000.9,N
1575239116.0,286047000.9,N
1575239135.8,286047002.5,N
1575239155.7,286047001.7,N
1575239175.5,286047004.4,Y
1575239195.3,286047003.2,P
1575239215.2,286047003.5,N
1575239235.0,286047005.8,P
1575239235.9,286047005.8,N
1575239255.8,286047005.6,N
1575239275.6,286047005.7,N
1575239295.4,286047005.9,Y
1575239315.3,286047000.9,P
1575239335.1,286046998.3,N
1575239355.9,286046999.4,N
1575239375.7,286046998.2,N
1575239395.5,286047000.2,N
1575239415.4,286046998.2,N
1575239435.2,286046996.8,N
1575239455.0,286046995.7,N
1575239455.9,286046995.7,N
1575239475.8,286046997.3,N
1575239495.6,286046997.3,N
1575239515.5,286046997.0,N
1575239535.3,286046999.3,N
1575239555.1,286046999.0,N
1575239575.9,286046999.1,N
1575239595.7,286047000.7,N
1575239615.6,286047001.2,N
1575239635.4,286047000.6,N
1575239655.2,286046998.3,N
1575239675.1,286047001.1,N
1575239676.0,286047001.1,N
1575239695.8,286047000.0,N
1575239715.6,286047000.6,N
1575239735.5,286046999.8,N
1575239755.3,286047002.4,N
1575239775.2,286047004.2,N
1575239795.9,286047001.7,N
1575239815.7,286047001.7,N
1575239835.6,286047002.0,N
1575239855.4,286046999.8,N
1575239875.2,286046998.8,N
1575239895.1,286046999.4,N
1575239896.0,286046999.4,N
1575239915.8,286047001.2,N
1575239935.7,286047000.9,N
1575239955.5,286047001.0,N
1575239975.3,286047000.6,N
1575239995.2,286047000.6,N
1575240015.0,286047000.0,N
1575240015.9,286047000.0,N
1575240035.8,286047011.9,Y
1575240055.6,286047000.7,P
1575240075.4,286047000.9,P
1575240095.3,286047002.3,P
1575240115.1,286046999.9,N
1575240135.8,286047001.0,N
1575240155.7,286046998.7,N
1575240175.5,286046996.9,Y
1575240195.4,286046997.4,P
1575240215.2,286046995.5,N
1575240235.0,286046996.9,N
1575240235.9,286046996.9,N
1575240255.8,286046999.6,N
1575240275.6,286046999.3,N
1575240295.5,286046999.5,N
1575240315.3,286046997.0,N
1575240335.1,286046999.1,N
1575240355.9,286046997.1,N
1575240375.7,286046998.7,N
1575240395.5,286046999.4,N
1575240415.4,286046999.1,N
1575240435.2,286046999.0,N
1575240455.1,286046999.3,N
1575240456.0,286046999.3,N
1575240475.8,286046999.0,N
1575240495.6,286046998.2,N
1575240515.5,286046998.9,N
1575240535.3,286046998.9,N
1575240555.1,286047001.0,N
1575240575.9,286046999.0,N
1575240595.7,286046997.2,N
1575240615.6,286046997.5,N
1575240635.4,286046997.6,N
1575240655.2,286046996.6,N
1575240675.1,286046995.6,Y
1575240676.0,286046995.6,P
1575240695.8,286046999.5,N
1575240715.7,286046998.2,N
1575240735.5,286046999.2,N
1575240755.3,286046999.5,N
1575240775.2,286046996.8,N
1575240795.0,286046999.6,N
1575240795.9,286046999.6,N
1575240815.7,286046998.5,N
1575240835.6,286047000.7,N
1575240855.4,286046998.5,N
1575240875.3,286046998.3,N
1575240895.1,286046999.3,N
1575240896.0,286046999.3,N
1575240915.8,286046996.6,N
1575240935.7,286047000.8,N
1575240955.5,286047000.6,N
1575240975.3,286046999.4,N
1575240995.2,286046996.6,N
1575241015.0,286047000.6,N
1575241015.9,286047000.6,N
1575241035.8,286047001.0,N
1575241055.6,286047001.2,N
1575241075.4,286046998.2,N
1575241095.3,286046998.8,N
1575241115.1,286046999.1,N
1575241135.8,286046999.5,N
1575241155.7,286046998.9,N
1575241175.5,286046999.1,N
1575241195.4,286046996.9,N
